Wetbulb
37.74 35.96 36.00 35.68 35.31 35.22 35.74 37.11 32.96 27.72 28.40 29.32 30.30 31.60 30.64 33.58 35.20 33.33 35.35 43.11 42.91 42.77 42.56 42.41 42.22 42.39 42.43 42.67 42.99 43.15 43.56 43.67 44.02 44.45 44.90 44.85 45.07 45.20
38.52 36.65 36.80 35.61 34.69 35.09 36.12 35.00 34.20 32.23 28.63 30.23 29.90 30.34 30.74 35.04 35.43 31.92 35.21 39.35 41.68 41.20 40.83 40.84 40.69 41.03 41.21 41.23 41.46 41.80 42.32 42.73 43.28 43.54 43.88 44.05 44.09 44.06
39.17 37.96 37.35 35.71 34.41 34.77 35.26 35.02 34.12 33.18 30.17 29.50 30.06 29.56 28.76 30.97 30.07 30.25 32.28 31.00 31.68 39.56 39.61 39.60 39.84 40.04 39.99 39.78 40.06 40.68 41.22 41.58 41.98 42.39 42.61 42.69 42.77 42.79
39.26 37.85 36.75 37.19 34.35 34.76 35.56 35.22 34.79 33.70 32.02 29.01 28.26 28.21 27.59 29.17 27.37 27.33 30.76 32.17 29.16 37.34 38.66 38.70 39.03 39.67 38.95 38.58 39.02 39.76 39.97 40.27 40.36 40.65 40.91 41.09 41.32 41.58
40.29 39.16 36.84 35.91 34.52 34.64 35.16 35.21 34.82 34.56 32.08 30.05 27.84 28.12 27.21 26.48 25.51 26.21 26.39 25.67 30.76 36.03 38.23 38.77 38.65 38.80 37.79 37.91 38.39 38.73 38.91 39.12 39.29 39.22 39.24 39.43 39.75 39.92
40.95 39.75 38.14 37.54 36.52 35.75 36.49 35.34 34.22 32.36 31.33 30.43 28.66 27.06 26.97 26.59 26.05 24.98 24.85 25.43 26.44 29.37 33.04 34.68 35.49 36.19 36.18 37.35 37.62 37.52 37.85 38.06 38.32 38.44 38.35 38.13 37.92 38.12
40.00 39.46 39.03 39.32 40.55 39.45 38.06 35.19 33.46 31.60 30.98 29.31 27.98 27.21 26.37 25.68 25.26 25.10 24.82 24.72 24.60 24.90 25.26 26.49 26.39 26.52 28.21 32.12 34.43 36.76 37.02 37.20 37.36 37.50 37.34 37.39 37.12 37.07
38.86 38.18 38.53 40.40 41.53 43.32 42.97 40.00 37.10 32.58 30.50 29.67 27.99 27.78 26.14 26.34 25.01 24.98 24.27 23.45 23.00 24.60 23.55 24.53 25.74 25.57 26.42 27.63 35.58 36.12 36.05 36.16 36.43 36.52 36.36 36.43 36.29 36.13
40.09 38.28 38.51 39.36 41.01 40.68 42.38 41.37 40.30 40.16 37.60 31.90 29.69 28.97 26.51 27.96 26.41 24.68 24.25 23.89 22.73 23.98 23.69 22.53 24.65 24.00 26.11 27.88 33.90 34.90 35.12 35.35 35.41 35.54 35.42 35.06 35.08 35.20
39.95 39.51 38.98 38.78 39.34 38.78 36.96 34.68 34.87 34.78 34.89 33.66 33.65 30.45 29.05 28.60 29.34 27.36 25.99 23.90 24.60 25.31 24.57 21.48 23.44 24.12 25.44 25.84 32.49 33.53 34.13 34.48 34.43 34.56 34.54 33.93 33.76 34.18
39.57 39.62 39.55 39.00 42.21 40.96 35.38 32.87 31.39 31.72 37.27 37.53 36.17 35.86 35.75 34.93 31.50 27.86 25.02 23.87 22.24 23.89 25.33 23.82 24.16 23.70 24.28 24.50 26.31 32.08 32.58 33.43 33.25 33.05 32.81 32.71 32.79 32.89
39.21 39.40 41.62 40.21 42.92 40.98 34.57 32.55 30.58 29.99 32.12 32.51 33.28 34.61 33.94 34.45 34.08 27.78 27.40 24.27 23.60 23.27 25.31 23.81 23.15 22.47 20.16 23.78 24.64 24.95 25.52 31.15 31.16 31.20 31.44 31.41 31.93 26.70
38.82 38.60 39.98 43.23 42.67 40.82 37.77 34.31 32.66 32.22 33.01 29.32 28.70 27.67 27.48 27.41 27.35 27.77 27.80 27.01 25.28 24.08 27.19 22.68 18.88 21.17 18.75 21.12 23.56 24.86 24.55 25.12 24.58 25.21 28.76 29.28 30.79 29.59
39.21 39.63 41.57 42.16 41.07 40.36 36.90 38.65 37.25 33.07 29.26 27.63 26.82 25.70 26.04 26.03 26.27 26.88 27.16 27.11 27.66 26.91 26.99 25.14 16.32 18.41 14.36 16.49 19.58 23.52 23.40 24.13 23.59 23.35 23.56 26.35 27.98 28.49
40.72 41.47 41.79 40.88 40.38 38.38 39.78 38.27 34.56 29.70 28.04 27.29 26.05 25.89 26.44 26.67 27.46 27.21 27.59 27.93 27.48 27.37 27.54 26.24 23.27 21.24 15.84 13.42 18.09 19.91 22.82 22.78 23.04 22.55 22.50 22.37 22.19 22.70
41.72 41.49 40.81 39.50 37.89 38.01 37.22 32.88 29.34 28.85 28.96 27.38 26.09 26.12 27.06 27.16 27.04 26.97 26.11 25.58 24.87 24.72 26.40 26.20 25.34 22.95 16.35 19.94 20.16 16.62 19.65 16.93 21.94 21.77 21.82 22.04 22.43 22.71
39.62 37.47 34.79 34.61 34.31 30.45 27.46 27.06 28.17 28.78 27.22 26.80 26.05 25.79 26.30 26.46 25.62 25.86 24.51 22.00 18.39 19.02 18.97 22.81 24.28 22.99 22.48 20.74 15.82 18.09 18.27 18.19 20.33 20.77 20.39 19.24 20.47 21.22
36.67 33.89 33.16 33.30 30.57 28.47 26.46 26.47 27.48 28.13 26.96 26.79 26.33 26.26 25.70 24.89 24.51 23.12 20.99 17.37 15.63 16.05 15.56 18.31 16.14 12.99 14.52 19.10 23.59 17.35 16.02 15.93 19.48 20.11 19.85 17.21 17.37 20.38
34.34 33.42 32.85 31.25 28.96 28.09 27.15 27.34 26.73 27.08 27.70 27.08 26.40 25.93 25.29 24.34 24.29 20.91 19.11 17.80 15.25 14.96 14.88 16.70 7.41 1.85 0.76 4.06 16.93 25.39 14.06 14.80 16.05 17.46 17.93 16.28 16.97 18.99
34.17 32.68 30.83 29.74 29.06 28.08 27.99 27.55 26.98 26.87 26.65 25.80 25.76 25.13 25.03 24.12 21.42 19.11 17.73 12.48 12.29 12.84 12.12 14.76 11.81 8.87 3.73 4.75 5.37 15.55 23.93 18.31 18.00 17.38 17.35 18.91 20.49 24.90
32.40 31.62 31.20 30.55 29.58 29.06 28.34 27.89 27.31 26.72 26.24 25.69 25.13 24.57 24.13 22.31 18.92 17.76 18.09 21.65 18.47 10.51 7.85 12.93 16.16 21.58 3.45 6.05 6.84 13.23 17.99 24.08 23.46 19.56 18.84 14.70 11.22 15.27
30.57 29.99 29.85 29.56 29.10 28.72 28.43 28.00 27.82 27.47 25.92 25.45 25.19 24.27 22.22 21.04 17.54 16.86 16.98 15.32 14.58 13.40 11.35 10.47 10.04 6.58 1.92 8.51 14.10 13.15 15.17 18.11 21.51 24.01 24.53 22.35 14.76 15.58
29.67 29.49 29.27 29.09 29.26 29.11 28.76 28.88 27.94 26.59 25.37 24.98 23.83 22.17 20.75 18.32 19.04 19.00 17.19 16.19 12.43 6.88 6.89 7.84 7.81 5.66 5.85 5.95 11.49 6.17 9.36 14.16 15.10 16.39 18.10 23.87 25.22 25.90
MSLP
1026.99 1027.65 1028.27 1028.81 1029.16 1029.77 1030.35 1030.87 1031.93 1034.76 1035.86 1036.07 1036.27 1036.42 1036.57 1036.57 1036.56 1036.67 1036.72 1036.59 1036.79 1036.99 1037.22 1037.29 1037.31 1037.34 1037.35 1037.25 1037.21 1037.07 1036.84 1036.60 1036.26 1036.01 1035.68 1035.35 1034.86 1034.38
1026.69 1027.50 1028.09 1028.61 1029.26 1029.81 1030.26 1030.82 1031.27 1032.29 1034.60 1035.40 1035.92 1036.19 1036.48 1036.57 1036.71 1036.93 1036.92 1036.90 1036.95 1037.19 1037.46 1037.56 1037.63 1037.59 1037.58 1037.57 1037.53 1037.46 1037.25 1037.02 1036.72 1036.37 1036.09 1035.74 1035.22 1034.77
1026.27 1027.01 1027.74 1028.33 1029.06 1029.73 1030.25 1030.76 1031.30 1031.81 1033.54 1035.43 1035.76 1036.17 1036.61 1036.80 1037.13 1037.34 1037.35 1037.57 1037.60 1037.24 1037.43 1037.62 1037.66 1037.61 1037.74 1037.76 1037.75 1037.67 1037.48 1037.13 1036.87 1036.60 1036.12 1035.60 1035.22 1034.74
1025.51 1026.46 1027.36 1028.19 1028.94 1029.48 1030.03 1030.57 1031.10 1031.60 1032.65 1034.65 1035.55 1036.04 1036.46 1036.84 1037.33 1037.61 1037.66 1037.73 1037.93 1037.35 1037.39 1037.65 1037.68 1037.74 1037.95 1037.95 1037.80 1037.74 1037.60 1037.25 1037.02 1036.82 1036.50 1035.91 1035.55 1035.25
1024.57 1025.70 1026.87 1027.78 1028.79 1029.33 1029.82 1030.34 1030.98 1031.65 1032.17 1033.15 1034.82 1035.56 1036.41 1036.91 1037.56 1037.73 1037.95 1038.16 1038.05 1037.75 1037.68 1037.83 1037.91 1037.98 1038.09 1038.06 1037.93 1037.81 1037.75 1037.53 1037.23 1036.80 1036.34 1036.07 1035.88 1035.44
1024.00 1025.01 1026.18 1027.04 1027.83 1028.71 1029.35 1029.90 1030.70 1031.67 1032.36 1033.25 1034.33 1035.41 1036.09 1037.00 1037.30 1037.77 1038.26 1038.43 1038.42 1038.16 1038.22 1038.23 1038.26 1038.40 1038.22 1038.09 1038.15 1037.90 1037.81 1037.75 1037.32 1037.03 1036.70 1036.27 1035.81 1035.29
1023.61 1024.55 1025.47 1026.18 1026.89 1027.65 1028.37 1029.44 1030.29 1031.37 1032.30 1033.08 1034.06 1035.04 1035.87 1036.46 1036.62 1037.19 1037.95 1038.28 1038.52 1038.59 1038.65 1038.62 1038.71 1038.77 1038.71 1038.52 1038.24 1037.93 1037.77 1037.67 1037.39 1037.12 1036.67 1036.27 1035.82 1035.22
1023.10 1024.52 1025.41 1025.94 1026.70 1027.26 1027.86 1028.80 1029.31 1030.20 1031.61 1032.51 1033.49 1034.17 1034.89 1035.37 1036.02 1036.65 1037.61 1038.45 1038.75 1038.60 1038.54 1038.53 1038.83 1038.61 1038.60 1038.67 1038.25 1037.89 1037.67 1037.42 1037.18 1037.01 1037.04 1036.35 1035.81 1035.20
1022.52 1023.76 1025.28 1026.03 1026.47 1027.28 1028.07 1028.91 1029.47 1029.77 1030.27 1031.09 1032.18 1032.86 1033.67 1034.07 1034.76 1036.11 1037.02 1037.63 1038.04 1038.48 1038.48 1038.61 1038.81 1038.72 1038.48 1038.35 1038.18 1037.99 1037.78 1037.65 1037.43 1036.98 1036.66 1036.25 1035.58 1035.02
1021.83 1022.89 1024.30 1025.77 1026.57 1027.21 1028.37 1029.23 1029.94 1030.29 1030.46 1030.74 1031.11 1032.14 1032.76 1033.46 1033.66 1034.85 1036.10 1037.49 1038.15 1038.35 1038.51 1038.72 1038.96 1038.50 1038.38 1038.16 1038.15 1038.25 1038.03 1037.72 1037.41 1037.32 1037.17 1036.38 1035.65 1035.25
1021.68 1022.48 1023.72 1025.10 1025.95 1026.84 1028.32 1029.46 1030.42 1030.81 1030.62 1030.67 1030.91 1031.45 1032.66 1032.57 1033.59 1035.02 1036.37 1037.26 1038.17 1038.31 1038.60 1038.67 1039.03 1038.86 1038.58 1038.50 1038.42 1038.35 1038.15 1037.74 1037.58 1037.28 1036.81 1036.15 1035.60 1035.11
1021.71 1022.75 1023.38 1024.32 1025.59 1026.52 1027.86 1029.18 1030.37 1031.30 1031.09 1031.67 1032.01 1032.31 1033.12 1033.21 1034.06 1034.61 1035.66 1036.66 1037.63 1038.28 1038.54 1038.87 1039.16 1039.22 1038.85 1038.55 1038.48 1038.42 1038.41 1038.22 1038.04 1037.60 1036.94 1036.22 1035.58 1034.97
1021.66 1023.04 1023.90 1024.16 1025.33 1026.42 1027.47 1028.67 1029.61 1030.86 1031.39 1032.18 1032.92 1033.33 1034.08 1034.69 1035.08 1035.48 1035.95 1036.41 1037.31 1037.93 1038.36 1039.00 1039.37 1039.61 1039.71 1039.16 1038.73 1038.57 1038.55 1038.22 1038.27 1037.74 1036.91 1036.50 1035.46 1035.07
1021.15 1022.56 1023.54 1024.29 1025.28 1026.47 1027.53 1028.24 1029.38 1030.82 1031.91 1032.85 1033.29 1034.00 1034.64 1035.16 1035.75 1036.06 1036.45 1036.74 1036.93 1037.35 1038.20 1038.33 1039.47 1040.03 1040.34 1039.94 1039.45 1038.70 1038.69 1038.29 1038.04 1037.49 1037.00 1036.18 1035.65 1034.98
1021.04 1022.00 1023.38 1024.39 1025.54 1026.68 1027.24 1028.32 1029.49 1030.67 1031.92 1032.91 1033.32 1034.43 1035.22 1035.66 1035.74 1036.44 1036.87 1037.21 1037.75 1038.24 1038.32 1038.41 1038.95 1039.63 1040.19 1040.36 1039.99 1039.42 1038.90 1038.21 1038.00 1037.60 1036.84 1036.39 1035.75 1035.22
1021.64 1022.70 1024.43 1025.00 1025.83 1027.13 1027.61 1028.85 1029.87 1030.56 1031.37 1032.22 1033.40 1034.56 1035.59 1035.78 1036.13 1036.62 1037.10 1037.62 1038.35 1038.77 1038.75 1038.99 1039.18 1039.61 1040.04 1039.76 1039.74 1039.30 1039.11 1038.97 1038.04 1037.51 1037.18 1036.53 1035.70 1035.19
1021.84 1023.49 1025.03 1025.62 1026.61 1028.18 1028.49 1029.25 1030.06 1031.00 1031.50 1032.32 1033.32 1034.39 1035.46 1035.94 1036.54 1036.87 1037.51 1038.07 1038.81 1039.35 1039.56 1039.41 1038.95 1039.09 1039.26 1039.54 1039.60 1039.27 1039.08 1038.71 1038.30 1037.86 1037.36 1036.61 1035.65 1034.96
1021.85 1023.51 1024.87 1025.96 1027.17 1027.59 1028.31 1029.38 1030.40 1031.19 1031.64 1032.54 1033.33 1034.09 1035.10 1035.96 1036.45 1037.15 1037.93 1038.54 1039.56 1039.98 1039.80 1040.09 1039.99 1039.86 1039.65 1039.04 1038.78 1039.00 1038.93 1038.79 1038.28 1037.63 1037.34 1036.79 1035.49 1034.64
1021.81 1023.48 1024.53 1025.82 1026.98 1027.58 1028.04 1029.24 1030.28 1031.18 1031.83 1032.35 1033.45 1034.27 1035.02 1035.95 1036.74 1037.28 1038.15 1038.86 1039.80 1040.16 1040.43 1040.63 1040.67 1041.06 1041.07 1040.49 1039.46 1038.61 1039.07 1038.63 1038.15 1037.67 1037.18 1036.90 1036.03 1034.55
1022.20 1023.31 1024.72 1025.64 1026.64 1027.62 1028.53 1029.34 1030.25 1030.99 1031.71 1032.61 1033.54 1034.39 1035.39 1036.23 1036.97 1037.69 1038.46 1039.36 1040.03 1040.39 1040.69 1040.72 1040.73 1040.76 1041.03 1041.36 1040.58 1039.33 1038.37 1038.26 1037.98 1037.37 1036.76 1036.33 1035.68 1034.26
1022.68 1023.55 1024.54 1025.59 1026.80 1027.73 1028.52 1029.30 1029.88 1030.71 1031.71 1032.86 1033.84 1034.64 1035.45 1036.39 1037.38 1038.11 1038.76 1039.27 1039.86 1040.58 1041.29 1040.97 1040.47 1040.04 1041.10 1041.06 1040.91 1039.77 1038.39 1037.71 1037.50 1037.26 1036.57 1035.90 1035.50 1034.47
1022.92 1024.18 1025.11 1025.89 1026.83 1027.60 1028.44 1029.12 1029.83 1030.94 1032.08 1033.02 1034.05 1034.89 1035.79 1036.61 1037.52 1038.19 1038.68 1039.30 1039.82 1040.28 1040.79 1040.97 1040.89 1040.89 1041.33 1041.21 1041.16 1040.34 1039.00 1037.69 1036.98 1036.63 1036.17 1035.83 1035.40 1034.27
1023.45 1024.27 1025.34 1026.17 1026.70 1027.36 1028.30 1028.98 1030.07 1031.36 1032.13 1033.23 1034.32 1035.16 1036.11 1036.80 1037.68 1038.27 1038.67 1039.40 1040.04 1040.49 1040.86 1041.02 1041.10 1041.46 1041.16 1040.83 1040.69 1040.55 1039.32 1038.33 1037.60 1036.67 1035.55 1035.12 1034.51 1033.75
Wind_Speed
9 7 4 3 4 4 5 8 6 5 6 4 3 4 3 3 4 4 3 8 7 7 8 8 8 8 8 9 10 11 12 13 14 16 17 18 19 20
7 8 5 4 5 4 5 4 2 5 5 3 3 3 4 3 4 4 3 6 7 7 7 6 5 6 7 7 8 10 11 13 14 16 17 18 19 20
10 9 7 7 5 5 4 3 3 3 5 1 2 1 2 4 3 2 3 4 3 4 5 4 4 4 5 5 7 9 11 12 13 14 15 16 18 19
13 10 8 6 7 6 5 5 4 3 5 5 2 2 3 2 3 4 2 3 2 3 4 3 3 5 4 4 5 9 10 11 11 14 16 17 18 20
15 14 10 9 7 5 5 5 4 3 3 5 4 2 3 2 3 3 2 2 1 5 5 4 4 4 3 3 5 8 9 10 11 14 14 16 18 20
14 12 12 12 12 10 9 7 6 5 4 6 4 4 3 2 3 3 2 1 1 3 4 4 4 3 4 4 6 7 8 10 12 14 14 16 17 19
12 12 11 12 15 14 10 8 8 5 5 4 4 3 3 4 5 4 3 2 0 0 0 0 1 1 2 3 3 5 7 10 12 13 13 16 18 19
14 9 8 13 14 17 13 16 13 10 7 5 4 5 4 4 4 4 4 3 3 1 2 1 1 1 1 1 3 5 7 10 12 12 13 17 19 20
14 13 9 6 12 10 14 14 11 9 8 7 7 6 6 9 8 5 4 3 3 2 2 1 0 2 2 3 2 4 8 11 12 12 12 17 18 20
15 16 13 12 10 12 11 8 6 5 6 4 6 5 4 10 10 5 5 5 3 2 1 1 1 2 2 2 5 3 7 12 14 12 15 18 19 20
12 13 14 13 18 21 12 10 7 4 4 7 8 12 13 19 14 9 4 4 1 2 1 2 1 3 2 2 2 3 5 13 14 11 17 18 19 20
9 10 20 16 22 22 13 12 9 5 8 8 8 12 10 13 12 4 6 4 3 2 2 2 0 2 3 1 1 1 3 11 11 12 19 20 20 5
10 9 7 23 22 19 16 9 7 11 12 9 7 7 7 6 5 5 4 4 3 2 2 3 1 2 1 3 2 1 1 4 3 5 15 18 21 17
13 9 12 23 22 19 13 20 24 16 7 6 7 6 6 6 5 6 6 5 5 5 4 3 3 2 1 2 3 2 2 2 3 7 7 12 18 20
9 15 23 23 22 15 23 25 20 9 8 7 7 5 3 5 7 5 6 8 8 5 3 4 3 2 3 2 2 2 5 2 2 8 9 9 9 9
18 16 14 15 15 13 17 13 6 7 8 8 7 7 5 4 4 2 3 3 3 3 5 5 4 2 1 2 2 2 2 2 5 6 8 9 9 8
16 12 9 8 10 8 7 7 7 6 8 8 9 8 6 5 3 2 2 2 3 2 1 3 3 2 3 4 1 1 2 2 3 7 7 9 9 8
12 11 10 9 9 9 9 8 6 8 7 8 8 8 7 5 5 2 3 3 3 1 2 2 3 4 4 2 4 1 2 2 5 6 6 7 8 7
9 9 10 9 9 8 9 9 7 6 8 8 8 7 7 5 7 4 4 3 2 2 0 1 3 3 3 2 3 4 2 3 2 5 3 3 9 11
8 10 10 9 10 9 8 8 8 8 7 7 7 7 6 6 5 5 4 4 3 2 2 1 1 1 4 4 3 3 12 4 5 7 6 5 9 19
8 9 9 9 8 8 8 8 9 8 8 8 7 6 6 5 5 4 4 8 6 3 1 1 1 3 2 3 4 4 3 11 10 7 8 6 3 4
8 8 8 9 9 9 9 9 9 9 8 7 6 6 5 5 5 5 4 4 3 3 3 1 3 2 3 2 3 4 6 5 14 14 12 8 3 5
8 9 8 8 8 9 9 9 9 8 7 7 7 6 6 6 5 5 4 4 3 3 1 2 2 2 0 3 3 3 5 6 4 8 8 11 15 18
Wind_Direction
165 149 145 151 135 133 134 160 134 145 205 205 163 202 180 164 147 113 96 116 108 100 86 75 66 59 54 48 41 32 25 22 16 11 9 6 6 5
154 150 149 141 143 136 150 144 121 134 139 154 208 156 178 148 159 129 117 91 121 109 93 81 71 62 58 47 40 27 20 16 13 10 6 5 4 2
158 159 160 146 152 145 134 131 126 108 114 130 108 132 122 145 111 110 94 88 43 101 107 92 87 76 60 49 37 24 16 12 8 6 3 2 1 357
167 161 159 147 147 148 155 158 149 130 124 135 133 127 123 144 134 122 133 104 70 70 119 119 101 79 50 46 33 24 14 12 4 2 3 1 355 353
168 168 159 150 152 160 164 154 137 118 112 136 136 133 110 117 106 82 108 91 45 56 70 76 71 87 38 43 28 24 15 5 3 1 360 357 354 351
168 165 159 166 166 165 172 156 138 126 107 115 87 105 114 119 106 129 140 86 199 42 47 77 73 62 37 56 36 23 15 7 1 360 359 355 351 348
165 163 165 168 172 171 163 159 141 126 131 120 111 118 147 156 174 161 124 125 251 100 101 359 32 338 2 18 350 18 15 4 2 359 352 350 347 347
160 156 157 152 160 167 156 159 159 146 152 138 155 162 182 144 136 145 122 141 216 207 153 244 222 250 239 279 343 24 16 4 1 354 351 347 345 347
162 152 149 155 150 145 143 148 152 152 166 151 161 179 163 174 136 130 147 147 162 180 118 244 236 275 214 253 295 5 16 7 359 351 351 348 345 344
160 162 153 150 152 139 134 129 127 123 140 161 165 162 136 156 148 142 137 109 86 87 129 196 355 263 272 264 242 340 13 7 360 351 350 348 347 340
154 153 152 151 153 144 135 128 114 88 104 116 131 141 162 145 128 119 127 112 96 173 80 115 345 300 320 330 261 279 8 3 355 354 352 350 345 343
140 145 155 150 152 148 138 141 132 144 117 97 99 100 107 124 127 90 139 125 121 83 191 111 287 19 343 346 309 324 349 351 351 350 347 348 344 342
144 141 150 145 149 148 143 147 141 137 119 107 104 95 81 78 71 71 82 118 120 101 171 106 95 40 131 304 331 352 334 324 322 327 344 342 342 347
151 145 146 144 141 143 135 133 133 124 111 119 116 105 107 104 90 85 86 81 69 105 119 118 117 128 97 343 297 326 284 291 323 332 332 331 335 343
142 132 146 140 137 134 137 138 134 130 135 142 125 108 93 118 111 92 81 81 71 68 72 72 112 146 126 191 270 315 332 283 307 340 338 337 329 327
128 126 142 137 128 141 134 128 126 140 148 133 120 108 121 122 114 94 106 102 91 74 52 58 64 82 316 229 210 276 229 317 322 331 325 318 316 315
121 119 130 126 128 139 115 114 120 132 131 129 133 128 132 120 94 89 90 78 85 101 12 354 4 337 229 209 289 259 292 285 312 320 324 315 312 308
124 141 143 146 153 146 136 128 130 134 129 131 131 136 136 136 130 102 79 82 100 85 88 337 8 6 352 322 183 243 295 282 314 315 317 313 306 318
132 142 145 149 147 145 132 142 138 133 136 131 136 133 129 132 138 112 102 107 93 86 46 66 56 84 41 344 303 310 217 273 285 313 293 278 296 307
132 140 144 143 142 140 142 139 134 135 127 126 133 129 132 136 126 124 126 117 120 98 46 353 75 202 138 208 254 264 311 300 325 315 312 295 280 294
132 134 138 136 137 138 137 137 135 129 131 133 125 131 129 125 118 115 135 141 131 115 144 238 247 76 124 61 8 302 289 317 324 313 306 299 277 280
120 126 131 132 138 138 137 134 126 128 129 124 128 122 117 124 131 138 129 124 141 160 178 288 343 39 68 130 296 285 302 314 321 318 313 307 280 310
122 127 131 132 135 134 135 132 129 132 129 125 125 121 132 128 133 134 126 122 127 92 90 334 339 23 326 171 273 280 302 312 303 318 317 315 314 312